timestamp,wind_dir_avg,wind_spd_max_dir,wind_spd_avg,wind_spd_gust,battery_voltage,lat,long
2018-06-21 00:00:00+00:00,233.0,234.0,9.04,10.05,,47.59359,-54.27349
2018-06-21 00:10:00+00:00,230.0,233.0,8.81,9.95,,47.59359,-54.27349
2018-06-21 00:20:00+00:00,227.0,225.0,9.44,10.18,,47.59359,-54.27349
2018-06-21 00:30:00+00:00,229.0,229.0,9.59,10.84,,47.59359,-54.27349
2018-06-21 00:40:00+00:00,226.0,227.0,9.18,10.5,,47.59359,-54.27349
2018-06-21 00:50:00+00:00,230.0,232.0,8.36,9.77,,47.59359,-54.27349
2018-06-21 01:00:00+00:00,230.0,232.0,8.75,10.02,,47.59359,-54.27349
2018-06-21 01:10:00+00:00,231.0,239.0,7.9,8.94,,47.59359,-54.27349
2018-06-21 01:20:00+00:00,225.0,224.0,8.71,9.42,,47.59359,-54.27349
2018-06-21 01:30:00+00:00,221.0,221.0,7.9,8.97,,47.59359,-54.27349
2018-06-21 01:40:00+00:00,224.0,222.0,8.78,9.95,,47.59359,-54.27349
2018-06-21 01:50:00+00:00,230.0,231.0,9.18,10.64,,47.59359,-54.27349
2018-06-21 02:00:00+00:00,228.0,231.0,7.75,8.81,,47.59359,-54.27349
2018-06-21 02:10:00+00:00,231.0,231.0,8.77,11.14,,47.59359,-54.27349
2018-06-21 02:20:00+00:00,234.0,232.0,9.02,9.73,,47.59359,-54.27349
2018-06-21 02:30:00+00:00,219.0,219.0,8.56,9.16,,47.59359,-54.27349
2018-06-21 02:40:00+00:00,216.0,216.0,9.49,10.1,,47.59359,-54.27349
2018-06-21 02:50:00+00:00,224.0,223.0,10.37,11.31,,47.59359,-54.27349
2018-06-21 03:00:00+00:00,221.0,220.0,9.17,10.02,,47.59359,-54.27349
2018-06-21 03:10:00+00:00,225.0,225.0,9.36,10.26,,47.59359,-54.27349
2018-06-21 03:20:00+00:00,222.0,223.0,8.83,9.79,,47.59359,-54.27349
2018-06-21 03:30:00+00:00,223.0,229.0,8.11,9.2,,47.59359,-54.27349
2018-06-21 03:40:00+00:00,220.0,226.0,6.72,7.72,,47.59359,-54.27349
2018-06-21 03:50:00+00:00,220.0,228.0,6.5,7.85,,47.59359,-54.27349
2018-06-21 04:00:00+00:00,224.0,230.0,7.67,8.59,,47.59359,-54.27349
2018-06-21 04:10:00+00:00,222.0,224.0,7.62,8.12,,47.59359,-54.27349
2018-06-21 04:20:00+00:00,227.0,227.0,8.1,9.76,,47.59359,-54.27349
2018-06-21 04:30:00+00:00,232.0,238.0,7.05,7.97,,47.59359,-54.27349
2018-06-21 04:40:00+00:00,229.0,231.0,7.15,8.33,,47.59359,-54.27349
2018-06-21 04:50:00+00:00,227.0,227.0,6.36,6.98,,47.59359,-54.27349
2018-06-21 05:00:00+00:00,220.0,220.0,7.73,8.37,,47.59359,-54.27349
2018-06-21 05:10:00+00:00,225.0,226.0,7.06,7.95,,47.59359,-54.27349
2018-06-21 05:20:00+00:00,220.0,220.0,5.96,6.39,,47.59359,-54.27349
2018-06-21 05:30:00+00:00,216.0,216.0,7.22,8.08,,47.59359,-54.27349
2018-06-21 05:40:00+00:00,220.0,219.0,7.03,7.82,,47.59359,-54.27349
2018-06-21 05:50:00+00:00,222.0,224.0,6.32,6.75,,47.59359,-54.27349
2018-06-21 06:00:00+00:00,221.0,221.0,6.14,6.58,,47.59359,-54.27349
2018-06-21 06:10:00+00:00,223.0,224.0,6.62,7.17,,47.59359,-54.27349
2018-06-21 06:20:00+00:00,225.0,225.0,6.65,7.64,,47.59359,-54.27349
2018-06-21 06:30:00+00:00,229.0,230.0,6.78,7.76,,47.59359,-54.27349
2018-06-21 06:40:00+00:00,226.0,229.0,7.02,8.33,,47.59359,-54.27349
2018-06-21 06:50:00+00:00,225.0,229.0,6.66,7.5,,47.59359,-54.27349
2018-06-21 07:00:00+00:00,224.0,219.0,7.24,8.08,,47.59359,-54.27349
2018-06-21 07:10:00+00:00,228.0,232.0,8.3,9.3,,47.59359,-54.27349
2018-06-21 07:20:00+00:00,230.0,234.0,7.12,7.92,,47.59359,-54.27349
2018-06-21 07:30:00+00:00,222.0,219.0,6.52,7.56,,47.59359,-54.27349
2018-06-21 07:40:00+00:00,220.0,219.0,6.89,7.82,,47.59359,-54.27349
2018-06-21 07:50:00+00:00,215.0,216.0,6.67,7.33,,47.59359,-54.27349
2018-06-21 08:00:00+00:00,213.0,213.0,8.09,8.65,,47.59359,-54.27349
2018-06-21 08:10:00+00:00,205.0,206.0,6.43,6.83,,47.59359,-54.27349
2018-06-21 08:20:00+00:00,219.0,219.0,5.25,5.73,,47.59359,-54.27349
2018-06-21 08:30:00+00:00,213.0,216.0,5.12,6.03,,47.59359,-54.27349
2018-06-21 08:40:00+00:00,218.0,225.0,4.68,5.61,,47.59359,-54.27349
2018-06-21 08:50:00+00:00,220.0,221.0,5.38,6.57,,47.59359,-54.27349
2018-06-21 09:00:00+00:00,218.0,216.0,6.07,6.93,,47.59359,-54.27349
2018-06-21 09:10:00+00:00,219.0,224.0,5.29,6.02,,47.59359,-54.27349
2018-06-21 09:20:00+00:00,223.0,222.0,5.27,5.91,,47.59359,-54.27349
2018-06-21 09:30:00+00:00,218.0,216.0,4.59,5.39,,47.59359,-54.27349
2018-06-21 09:40:00+00:00,221.0,219.0,4.36,4.92,,47.59359,-54.27349
2018-06-21 09:50:00+00:00,223.0,227.0,5.0,5.86,,47.59359,-54.27349
2018-06-21 10:00:00+00:00,221.0,222.0,4.93,5.53,,47.59359,-54.27349
2018-06-21 10:10:00+00:00,224.0,230.0,4.47,5.05,,47.59359,-54.27349
2018-06-21 10:20:00+00:00,209.0,204.0,4.1,4.92,,47.59359,-54.27349
2018-06-21 10:30:00+00:00,221.0,232.0,6.26,7.34,,47.59359,-54.27349
2018-06-21 10:40:00+00:00,222.0,219.0,7.65,8.83,,47.59359,-54.27349
2018-06-21 10:50:00+00:00,215.0,215.0,6.35,7.07,,47.59359,-54.27349
2018-06-21 11:00:00+00:00,223.0,223.0,8.2,9.32,,47.59359,-54.27349
2018-06-21 11:10:00+00:00,227.0,233.0,8.79,9.93,,47.59359,-54.27349
2018-06-21 11:20:00+00:00,226.0,228.0,8.4,9.26,,47.59359,-54.27349
2018-06-21 11:30:00+00:00,226.0,218.0,7.6,8.79,,47.59359,-54.27349
2018-06-21 11:40:00+00:00,228.0,228.0,8.62,10.83,,47.59359,-54.27349
2018-06-21 11:50:00+00:00,227.0,229.0,7.85,9.62,,47.59359,-54.27349
2018-06-21 12:00:00+00:00,227.0,227.0,9.8,11.19,,47.59359,-54.27349
2018-06-21 12:10:00+00:00,224.0,228.0,9.77,11.31,,47.59359,-54.27349
2018-06-21 12:20:00+00:00,228.0,228.0,10.99,12.72,,47.59359,-54.27349
2018-06-21 12:30:00+00:00,226.0,221.0,9.64,10.97,,47.59359,-54.27349
2018-06-21 12:40:00+00:00,229.0,227.0,11.14,12.38,,47.59359,-54.27349
2018-06-21 12:50:00+00:00,218.0,220.0,11.21,12.23,,47.59359,-54.27349
2018-06-21 13:00:00+00:00,219.0,221.0,10.22,11.42,,47.59359,-54.27349
2018-06-21 13:10:00+00:00,217.0,217.0,10.43,11.39,,47.59359,-54.27349
2018-06-21 13:20:00+00:00,219.0,222.0,9.96,11.27,,47.59359,-54.27349
2018-06-21 13:30:00+00:00,221.0,220.0,10.33,12.19,,47.59359,-54.27349
2018-06-21 13:40:00+00:00,222.0,222.0,10.49,11.95,,47.59359,-54.27349
2018-06-21 13:50:00+00:00,221.0,223.0,10.9,11.83,,47.59359,-54.27349
2018-06-21 14:00:00+00:00,223.0,223.0,10.48,11.57,,47.59359,-54.27349
2018-06-21 14:10:00+00:00,223.0,222.0,12.02,13.44,,47.59359,-54.27349
2018-06-21 14:20:00+00:00,227.0,228.0,11.39,13.33,,47.59359,-54.27349
2018-06-21 14:30:00+00:00,223.0,225.0,11.99,13.4,,47.59359,-54.27349
2018-06-21 14:40:00+00:00,220.0,216.0,11.8,13.67,,47.59359,-54.27349
2018-06-21 14:50:00+00:00,222.0,221.0,11.34,12.8,,47.59359,-54.27349
2018-06-21 15:00:00+00:00,222.0,220.0,10.71,11.85,,47.59359,-54.27349
2018-06-21 15:10:00+00:00,226.0,231.0,11.7,13.55,,47.59359,-54.27349
2018-06-21 15:20:00+00:00,225.0,221.0,10.51,11.58,,47.59359,-54.27349
2018-06-21 15:30:00+00:00,224.0,224.0,10.07,10.99,,47.59359,-54.27349
2018-06-21 15:40:00+00:00,229.0,232.0,11.37,13.52,,47.59359,-54.27349
2018-06-21 15:50:00+00:00,229.0,225.0,12.91,14.96,,47.59359,-54.27349
2018-06-21 16:00:00+00:00,225.0,225.0,13.13,14.83,,47.59359,-54.27349
2018-06-21 16:10:00+00:00,223.0,224.0,12.54,13.77,,47.59359,-54.27349
2018-06-21 16:20:00+00:00,219.0,221.0,11.59,13.06,,47.59359,-54.27349
2018-06-21 16:30:00+00:00,220.0,222.0,11.47,13.17,,47.59359,-54.27349
2018-06-21 16:40:00+00:00,225.0,229.0,11.15,12.62,,47.59359,-54.27349
2018-06-21 16:50:00+00:00,220.0,224.0,11.68,13.07,,47.59359,-54.27349
2018-06-21 17:00:00+00:00,221.0,221.0,10.71,12.04,,47.59359,-54.27349
2018-06-21 17:10:00+00:00,225.0,227.0,12.01,13.75,,47.59359,-54.27349
2018-06-21 17:20:00+00:00,223.0,227.0,11.79,13.28,,47.59359,-54.27349
2018-06-21 17:30:00+00:00,222.0,226.0,10.85,12.13,,47.59359,-54.27349
2018-06-21 17:40:00+00:00,222.0,227.0,11.05,13.1,,47.59359,-54.27349
2018-06-21 17:50:00+00:00,222.0,220.0,10.68,11.81,,47.59359,-54.27349
2018-06-21 18:00:00+00:00,219.0,217.0,10.91,12.38,,47.59359,-54.27349
2018-06-21 18:10:00+00:00,218.0,218.0,11.49,12.81,,47.59359,-54.27349
2018-06-21 18:20:00+00:00,217.0,213.0,10.08,11.37,,47.59359,-54.27349
2018-06-21 18:30:00+00:00,216.0,217.0,9.77,11.05,,47.59359,-54.27349
2018-06-21 18:40:00+00:00,217.0,219.0,9.89,11.11,,47.59359,-54.27349
2018-06-21 18:50:00+00:00,219.0,219.0,10.18,11.85,,47.59359,-54.27349
2018-06-21 19:00:00+00:00,219.0,218.0,9.1,10.21,,47.59359,-54.27349
2018-06-21 19:10:00+00:00,217.0,219.0,9.11,10.35,,47.59359,-54.27349
2018-06-21 19:20:00+00:00,217.0,216.0,9.9,10.84,,47.59359,-54.27349
2018-06-21 19:30:00+00:00,217.0,218.0,9.38,10.55,,47.59359,-54.27349
2018-06-21 19:40:00+00:00,217.0,218.0,9.35,10.58,,47.59359,-54.27349
2018-06-21 19:50:00+00:00,217.0,219.0,8.73,9.7,,47.59359,-54.27349
2018-06-21 20:00:00+00:00,217.0,219.0,8.69,9.96,,47.59359,-54.27349
2018-06-21 20:10:00+00:00,222.0,219.0,8.95,10.06,,47.59359,-54.27349
2018-06-21 20:20:00+00:00,219.0,220.0,9.79,11.05,,47.59359,-54.27349
2018-06-21 20:30:00+00:00,220.0,223.0,9.4,10.34,,47.59359,-54.27349
2018-06-21 20:40:00+00:00,218.0,218.0,9.98,11.06,,47.59359,-54.27349
2018-06-21 20:50:00+00:00,220.0,220.0,10.14,11.02,,47.59359,-54.27349
2018-06-21 21:00:00+00:00,225.0,222.0,9.57,10.82,,47.59359,-54.27349
2018-06-21 21:10:00+00:00,223.0,226.0,10.45,11.87,,47.59359,-54.27349
2018-06-21 21:20:00+00:00,223.0,225.0,9.47,10.43,,47.59359,-54.27349
2018-06-21 21:30:00+00:00,216.0,219.0,9.39,10.16,,47.59359,-54.27349
2018-06-21 21:40:00+00:00,216.0,216.0,9.37,10.15,,47.59359,-54.27349
2018-06-21 21:50:00+00:00,222.0,223.0,9.41,10.33,,47.59359,-54.27349
2018-06-21 22:00:00+00:00,217.0,216.0,8.25,9.26,,47.59359,-54.27349
2018-06-21 22:10:00+00:00,221.0,223.0,8.88,9.58,,47.59359,-54.27349
2018-06-21 22:20:00+00:00,221.0,222.0,8.96,10.66,,47.59359,-54.27349
2018-06-21 22:30:00+00:00,224.0,223.0,9.07,10.3,,47.59359,-54.27349
2018-06-21 22:40:00+00:00,223.0,225.0,8.19,9.07,,47.59359,-54.27349
2018-06-21 22:50:00+00:00,217.0,215.0,8.96,9.65,,47.59359,-54.27349
2018-06-21 23:00:00+00:00,225.0,221.0,9.59,10.32,,47.59359,-54.27349
2018-06-21 23:10:00+00:00,220.0,224.0,9.13,9.93,,47.59359,-54.27349
2018-06-21 23:20:00+00:00,225.0,221.0,9.29,10.42,,47.59359,-54.27349
2018-06-21 23:30:00+00:00,228.0,229.0,9.18,10.1,,47.59359,-54.27349
2018-06-21 23:40:00+00:00,222.0,224.0,7.96,8.48,,47.59359,-54.27349
2018-06-21 23:50:00+00:00,226.0,226.0,8.26,9.61,,47.59359,-54.27349
